Bryce Canyon, UT

3:37 AM MST on December 15, 2017 (GMT -0700)
Bryce Canyon

Weather History for KBCE - January, 2014

Change the Weather History Date:

Tuesday, January 14, 2014

  Actual Average Record
Temperature  
Mean Temperature 31 °F -  
Max Temperature 39 °F 37 °F 53 °F (1968)
Min Temperature 18 °F 10 °F -29 °F (2013)
Degree Days  
Heating Degree Days 34    
Moisture  
Dew Point 15 °F    
Average Humidity 54    
Maximum Humidity 78    
Minimum Humidity 39    
Precipitation  
Precipitation 0.00 in - - ()
Sea Level Pressure  
Sea Level Pressure 30.46 in    
Wind  
Wind Speed 14 mph (NW)    
Max Wind Speed 30 mph    
Max Gust Speed 51 mph    
Visibility 10 miles    
Events      
Averages and records for this station are not official NWS values.
T = Trace of Precipitation, MM = Missing Value Source: NWS Daily Summary

Daily Weather History Graph

Daily Weather History Graph

Search for Another Location

Airport or City:

Trip Planner

Search our weather history database for the weather conditions in past years. The results will help you decide how hot, cold, wet, or windy it might be!

Date:

Astronomy

Jan. 14, 2014 Rise Set
Actual Time 7:42 AM MST 5:32 PM MST
Civil Twilight 7:14 AM MST 6:01 PM MST
Nautical Twilight 6:41 AM MST 6:33 PM MST
Astronomical Twilight 6:10 AM MST 7:05 PM MST
Moon 4:40 PM MST (1/14) 6:20 AM MST (1/14)
Length of Visible Light 10h 47m
Length of Day
9h 49m
Waxing Gibbous, 98% of the Moon is Illuminated
Jan 14
Waxing Gibbous
Jan 15
Full
Jan 23
Last Quarter
Jan 30
New
Feb 6
First Quarter

Hourly Weather History & Observations

Time (MST) Temp. Windchill Dew Point Humidity Pressure Visibility Wind Dir Wind Speed Gust Speed Precip Events Conditions
12:53 AM 27.0 °F 16.7 °F 12.0 °F 53% 30.36 in 10.0 mi NW 11.5 mph - N/A   Clear
1:53 AM 25.0 °F 13.1 °F 12.0 °F 58% 30.37 in 10.0 mi WNW 13.8 mph - N/A   Clear
2:53 AM 25.0 °F 12.6 °F 12.0 °F 58% 30.38 in 10.0 mi NNW 15.0 mph - N/A   Clear
3:53 AM 30.0 °F 17.2 °F 12.9 °F 49% 30.35 in 10.0 mi NNW 20.7 mph - N/A   Clear
4:53 AM 24.1 °F 11.0 °F 12.0 °F 60% 30.40 in 10.0 mi WNW 16.1 mph - N/A   Clear
5:53 AM 28.0 °F 13.9 °F 12.9 °F 53% 30.40 in 10.0 mi NNW 23.0 mph 31.1 mph N/A   Clear
6:53 AM 30.9 °F 16.2 °F 12.0 °F 46% 30.35 in 10.0 mi NW 29.9 mph 50.6 mph N/A   Clear
7:53 AM 25.0 °F 12.6 °F 12.9 °F 60% 30.45 in 10.0 mi West 15.0 mph 19.6 mph N/A   Clear
8:37 AM 28.0 °F 14.6 °F 14.0 °F 56% 30.51 in 10.0 mi North 20.7 mph 29.9 mph N/A   Clear
8:53 AM 28.0 °F 15.3 °F 14.0 °F 56% 30.48 in 10.0 mi North 18.4 mph 27.6 mph N/A   Clear
9:53 AM 33.1 °F 26.1 °F 12.9 °F 43% 30.51 in 10.0 mi NNW 8.1 mph - N/A   Clear
10:53 AM 35.1 °F 27.9 °F 16.0 °F 46% 30.51 in 10.0 mi WNW 9.2 mph - N/A   Clear
11:53 AM 37.9 °F 35.5 °F 18.0 °F 45% 30.46 in 10.0 mi North 3.5 mph - N/A   Clear
12:53 PM 39.0 °F 31.4 °F 16.0 °F 39% 30.45 in 10.0 mi NW 12.7 mph - N/A   Clear
1:53 PM 39.0 °F 31.8 °F 19.9 °F 46% 30.45 in 10.0 mi North 11.5 mph - N/A   Clear
2:53 PM 37.9 °F 30.9 °F 21.9 °F 53% 30.44 in 10.0 mi North 10.4 mph - N/A   Clear
3:53 PM 37.0 °F 28.1 °F 19.9 °F 50% 30.44 in 10.0 mi North 15.0 mph - N/A   Clear
4:53 PM 36.0 °F 28.5 °F 17.1 °F 46% 30.50 in 10.0 mi NNW 10.4 mph - N/A   Clear
5:53 PM 32.0 °F 21.2 °F 16.0 °F 52% 30.51 in 10.0 mi NW 16.1 mph - N/A   Clear
6:53 PM 28.0 °F 17.5 °F 15.1 °F 58% 30.50 in 10.0 mi WNW 12.7 mph - N/A   Clear
7:53 PM 26.1 °F 14.5 °F 15.1 °F 63% 30.54 in 10.0 mi NNW 13.8 mph - N/A   Clear
8:53 PM 26.1 °F 20.5 °F 14.0 °F 60% 30.53 in 10.0 mi North 4.6 mph - N/A   Clear
9:53 PM 23.0 °F 10.6 °F 12.9 °F 65% 30.53 in 10.0 mi West 13.8 mph - N/A   Clear
10:53 PM 24.1 °F 11.5 °F 14.0 °F 65% 30.51 in 10.0 mi NNW 15.0 mph - N/A   Clear
11:53 PM 18.0 °F 8.7 °F 12.0 °F 78% 30.53 in 10.0 mi West 6.9 mph - N/A   Clear